, NV

(GMT )
Eureka Airport

Weather History for K05U - October, 2013

Change the Weather History Date:

Wednesday, October 2, 2013

  Actual Average Record
Temperature  
Mean Temperature 51 °F -  
Max Temperature 69 °F - - ()
Min Temperature 33 °F - - ()
Degree Days  
Heating Degree Days 14    
Growing Degree Days 1 (Base 50)    
Moisture  
Dew Point 20 °F    
Average Humidity 37    
Maximum Humidity 70    
Minimum Humidity 6    
Precipitation  
Precipitation 0.00 in - - ()
Sea Level Pressure  
Sea Level Pressure 30.01 in    
Wind  
Wind Speed 5 mph (West)    
Max Wind Speed 17 mph    
Max Gust Speed 31 mph    
Visibility 10 miles    
Events      
Averages and records for this station are not official NWS values.
T = Trace of Precipitation, MM = Missing Value Source: NWS Daily Summary

Daily Weather History Graph

Daily Weather History Graph

Search for Another Location

Airport or City:

Trip Planner

Search our weather history database for the weather conditions in past years. The results will help you decide how hot, cold, wet, or windy it might be!

Date:

Astronomy

Oct. 02, 2013 Rise Set
Actual Time 6:41 AM PDT 6:24 PM PDT
Civil Twilight 6:14 AM PDT 6:51 PM PDT
Nautical Twilight 5:43 AM PDT 7:22 PM PDT
Astronomical Twilight 5:11 AM PDT 7:53 PM PDT
Moon 4:19 AM PDT (10/2) 5:02 PM PDT (10/2)
Length of Visible Light 12h 36m
Length of Day
11h 42m
Waning Crescent, 6% of the Moon is Illuminated
Oct 2
Waning Crescent
Oct 4
New
Oct 11
First Quarter
Oct 18
Full
Oct 26
Last Quarter

Hourly Weather History & Observations

Time (PDT) Temp. Windchill Dew Point Humidity Pressure Visibility Wind Dir Wind Speed Gust Speed Precip Events Conditions
12:05 AM 39.2 °F 37.0 °F 24.8 °F 56% 30.08 in 10.0 mi SE 3.5 mph - N/A   Partly Cloudy
12:25 AM 39.2 °F 37.0 °F 24.8 °F 56% 30.08 in 10.0 mi SSW 3.5 mph - N/A   Partly Cloudy
12:45 AM 39.2 °F 35.9 °F 23.0 °F 52% 30.08 in 10.0 mi SW 4.6 mph - N/A   Clear
1:05 AM 37.4 °F 32.1 °F 24.8 °F 60% 30.08 in 10.0 mi SSW 6.9 mph - N/A   Clear
1:25 AM 37.4 °F 34.9 °F 24.8 °F 60% 30.08 in 10.0 mi SSW 3.5 mph - N/A   Clear
1:45 AM 37.4 °F 33.8 °F 24.8 °F 60% 30.08 in 10.0 mi SSE 4.6 mph - N/A   Clear
2:05 AM 39.2 °F 35.9 °F 23.0 °F 52% 30.08 in 10.0 mi SSW 4.6 mph - N/A   Clear
2:25 AM 37.4 °F 34.9 °F 23.0 °F 56% 30.08 in 10.0 mi SSW 3.5 mph - N/A   Clear
2:45 AM 35.6 °F 32.8 °F 23.0 °F 60% 30.07 in 10.0 mi SW 3.5 mph - N/A   Clear
3:05 AM 35.6 °F 30.7 °F 23.0 °F 60% 30.07 in 10.0 mi South 5.8 mph - N/A   Clear
3:25 AM 37.4 °F - 24.8 °F 60% 30.06 in 10.0 mi Calm Calm - N/A   Clear
3:45 AM 37.4 °F 34.9 °F 24.8 °F 60% 30.06 in 10.0 mi SSW 3.5 mph - N/A   Clear
4:05 AM 35.6 °F - 24.8 °F 65% 30.06 in 10.0 mi Calm Calm - N/A   Clear
4:25 AM 35.6 °F - 24.8 °F 65% 30.05 in 10.0 mi Calm Calm - N/A   Mostly Cloudy
4:45 AM 37.4 °F 34.9 °F 24.8 °F 60% 30.05 in 10.0 mi SE 3.5 mph - N/A   Overcast
5:05 AM 33.8 °F - 23.0 °F 65% 30.05 in 10.0 mi Calm Calm - N/A   Mostly Cloudy
5:25 AM 35.6 °F 30.7 °F 23.0 °F 60% 30.06 in 10.0 mi NNW 5.8 mph - N/A   Mostly Cloudy
5:45 AM 35.6 °F 31.7 °F 24.8 °F 65% 30.06 in 10.0 mi North 4.6 mph - N/A   Scattered Clouds
6:05 AM 37.4 °F 34.9 °F 24.8 °F 60% 30.07 in 10.0 mi NE 3.5 mph - N/A   Partly Cloudy
6:25 AM 37.4 °F 34.9 °F 26.6 °F 65% 30.07 in 10.0 mi East 3.5 mph - N/A   Clear
6:45 AM 37.4 °F 34.9 °F 26.6 °F 65% 30.07 in 10.0 mi SSE 3.5 mph - N/A   Clear
7:05 AM 37.4 °F - 26.6 °F 65% 30.07 in 10.0 mi Calm Calm - N/A   Clear
7:25 AM 39.2 °F 37.0 °F 28.4 °F 65% 30.07 in 10.0 mi SSE 3.5 mph - N/A   Clear
7:45 AM 41.0 °F 39.0 °F 30.2 °F 65% 30.07 in 10.0 mi South 3.5 mph - N/A   Clear
8:05 AM 41.0 °F - 32.0 °F 70% 30.06 in 10.0 mi Calm Calm - N/A   Clear
8:25 AM 44.6 °F - 32.0 °F 61% 30.06 in 10.0 mi Calm Calm - N/A   Clear
8:45 AM 44.6 °F 43.1 °F 32.0 °F 61% 30.06 in 10.0 mi North 3.5 mph - N/A   Clear
9:05 AM 46.4 °F 44.3 °F 32.0 °F 57% 30.06 in 10.0 mi NE 4.6 mph - N/A   Clear
9:25 AM 46.4 °F 44.3 °F 32.0 °F 57% 30.07 in 10.0 mi NE 4.6 mph - N/A   Clear
9:45 AM 48.2 °F - 32.0 °F 54% 30.06 in 10.0 mi NNE 4.6 mph - N/A   Clear
10:05 AM 50.0 °F - 32.0 °F 50% 30.05 in 10.0 mi NE 4.6 mph - N/A   Clear
10:25 AM 53.6 °F - 32.0 °F 44% 30.05 in 10.0 mi NE 3.5 mph - N/A   Clear
10:45 AM 55.4 °F - 32.0 °F 41% 30.04 in 10.0 mi NNE 4.6 mph - N/A   Clear
11:05 AM 57.2 °F - 32.0 °F 38% 30.04 in 10.0 mi North 4.6 mph - N/A   Clear
11:25 AM 55.4 °F - 32.0 °F 41% 30.04 in 10.0 mi ENE 3.5 mph - N/A   Clear
11:45 AM 57.2 °F - 32.0 °F 38% 30.03 in 10.0 mi NNE 5.8 mph - N/A   Clear
12:05 PM 57.2 °F - 32.0 °F 38% 30.02 in 10.0 mi NE 3.5 mph - N/A   Clear
12:25 PM 60.8 °F - 32.0 °F 34% 30.01 in 10.0 mi East 3.5 mph - N/A   Clear
12:45 PM 62.6 °F - 32.0 °F 32% 30.00 in 10.0 mi North 4.6 mph - N/A   Clear
1:05 PM 64.4 °F - 30.2 °F 28% 29.98 in 10.0 mi South 4.6 mph - N/A   Clear
1:25 PM 64.4 °F - 28.4 °F 26% 29.97 in 10.0 mi West 9.2 mph - N/A   Clear
1:45 PM 66.2 °F - 24.8 °F 21% 29.97 in 10.0 mi West 10.4 mph 16.1 mph N/A   Partly Cloudy
2:05 PM 64.4 °F - 24.8 °F 22% 29.96 in 10.0 mi WNW 6.9 mph - N/A   Clear
2:25 PM 64.4 °F - 24.8 °F 22% 29.96 in 10.0 mi WNW 8.1 mph 17.3 mph N/A   Partly Cloudy
2:45 PM 66.2 °F - 23.0 °F 19% 29.95 in 10.0 mi NW 16.1 mph 21.9 mph N/A   Scattered Clouds
3:05 PM 68.0 °F - 21.2 °F 17% 29.95 in 10.0 mi WNW 11.5 mph 20.7 mph N/A   Scattered Clouds
3:25 PM 69.8 °F - 23.0 °F 17% 29.94 in 10.0 mi West 12.7 mph 20.7 mph N/A   Clear
3:45 PM 69.8 °F - 15.8 °F 13% 29.93 in 10.0 mi West 16.1 mph 31.1 mph N/A   Clear
4:05 PM 68.0 °F - 15.8 °F 13% 29.93 in 10.0 mi West 15.0 mph 26.5 mph N/A   Clear
4:25 PM 68.0 °F - 8.6 °F 10% 29.93 in 10.0 mi West 16.1 mph 24.2 mph N/A   Clear
4:45 PM 66.2 °F - 1.4 °F 8% 29.93 in 10.0 mi West 17.3 mph 26.5 mph N/A   Clear
5:05 PM 66.2 °F - -2.2 °F 6% 29.93 in 10.0 mi West 17.3 mph 21.9 mph N/A   Clear
5:25 PM 64.4 °F - -4.0 °F 6% 29.93 in 10.0 mi West 17.3 mph 26.5 mph N/A   Clear
5:45 PM 64.4 °F - -2.2 °F 7% 29.94 in 10.0 mi West 15.0 mph 24.2 mph N/A   Clear
6:05 PM 62.6 °F - -0.4 °F 8% 29.94 in 10.0 mi West 17.3 mph 20.7 mph N/A   Clear
6:25 PM 59.0 °F - -0.4 °F 9% 29.94 in 10.0 mi West 9.2 mph - N/A   Clear
6:45 PM 59.0 °F - -0.4 °F 9% 29.94 in 10.0 mi West 11.5 mph - N/A   Clear
7:05 PM 57.2 °F - -0.4 °F 10% 29.94 in 10.0 mi West 8.1 mph 16.1 mph N/A   Clear
7:25 PM 55.4 °F - -0.4 °F 10% 29.94 in 10.0 mi WNW 4.6 mph - N/A   Clear
7:45 PM 50.0 °F - 5.0 °F 16% 29.95 in 10.0 mi South 3.5 mph - N/A   Clear
8:05 PM 50.0 °F - 3.2 °F 15% 29.94 in 10.0 mi South 3.5 mph - N/A   Clear
8:25 PM 46.4 °F 45.2 °F 5.0 °F 18% 29.94 in 10.0 mi South 3.5 mph - N/A   Clear
8:45 PM 44.6 °F - 5.0 °F 20% 29.95 in 10.0 mi Calm Calm - N/A   Clear
9:05 PM 44.6 °F 42.2 °F 6.8 °F 21% 29.95 in 10.0 mi SSE 4.6 mph - N/A   Clear
9:25 PM 46.4 °F 42.4 °F 8.6 °F 22% 29.95 in 10.0 mi West 8.1 mph - N/A   Clear
9:45 PM 53.6 °F - 8.6 °F 16% 29.95 in 10.0 mi West 11.5 mph - N/A   Clear
10:05 PM 53.6 °F - 8.6 °F 16% 29.95 in 10.0 mi West 12.7 mph 17.3 mph N/A   Clear
10:25 PM 53.6 °F - 8.6 °F 16% 29.95 in 10.0 mi West 11.5 mph - N/A   Clear
10:45 PM 53.6 °F - 8.6 °F 16% 29.95 in 10.0 mi West 11.5 mph 18.4 mph N/A   Clear
11:05 PM 53.6 °F - 10.4 °F 18% 29.96 in 10.0 mi West 12.7 mph 23.0 mph N/A   Clear
11:25 PM 51.8 °F - 10.4 °F 19% 29.97 in 10.0 mi West 8.1 mph - N/A   Clear
11:45 PM 50.0 °F - 10.4 °F 20% 29.98 in 10.0 mi NW 9.2 mph - N/A   Clear